H1 CPF 2 NER 2025 10 19 9 292 01 glonass129 H2 1106402 9129 37868 2025 10 19 0 0 0 2025 10 22 23 45 0 900 1 1 0 0 0 1 H9 10 0 60967 0.00000 0 16014809.010 19760297.708 -2278773.135 10 0 60967 900.00000 0 16208988.564 19716850.288 940944.117 10 0 60967 1800.00000 0 16133071.508 19368411.024 4142458.213 10 0 60967 2700.00000 0 15751104.657 18758275.367 7263852.179 10 0 60967 3600.00000 0 15037931.175 17937662.704 10244806.140 10 0 60967 4500.00000 0 13980452.948 16963436.761 13027746.498 10 0 60967 5400.00000 0 12578400.842 15895611.683 15558939.889 10 0 60967 6300.00000 0 10844581.014 14794747.593 17789512.428 10 0 60967 7200.00000 0 8804586.773 13719343.536 19676376.300 10 0 60967 8100.00000 0 6495987.157 12723335.350 21183047.523 10 0 60967 9000.00000 0 3967024.416 11853801.520 22280340.671 10 0 60967 9900.00000 0 1274872.418 11148971.459 22946928.299 10 0 60967 10800.00000 0 -1516474.340 10636618.368 23169755.077 10 0 60967 11700.00000 0 -4338596.523 10332903.263 22944298.776 10 0 60967 12600.00000 0 -7121234.092 10241718.648 22274672.664 10 0 60967 13500.00000 0 -9794954.437 10354560.041 21173566.265 10 0 60967 14400.00000 0 -12293796.139 10650932.160 19662024.016 10 0 60967 15300.00000 0 -14557780.227 11099274.617 17769064.083 10 0 60967 16200.00000 0 -16535185.481 11658370.381 15531142.407 10 0 60967 17100.00000 0 -18184493.152 12279179.944 12991469.989 10 0 60967 18000.00000 0 -19475919.342 12907025.724 10199194.504 10 0 60967 18900.00000 0 -20392469.805 13484035.907 7208460.285 10 0 60967 19800.00000 0 -20930471.428 13951744.999 4077363.660 10 0 60967 20700.00000 0 -21099556.400 14253740.818 866823.390 10 0 60967 21600.00000 0 -20922098.268 14338244.670 -2360611.718 10 0 60967 22500.00000 0 -20432122.536 14160513.482 -5541993.989 10 0 60967 23400.00000 0 -19673737.287 13684959.596 -8615221.396 10 0 60967 24300.00000 0 -18699150.307 12886895.535 -11520269.319 10 0 60967 25200.00000 0 -17566357.369 11753826.987 -14200383.373 10 0 60967 26100.00000 0 -16336600.873 10286236.612 -16603207.873 10 0 60967 27000.00000 0 -15071708.129 8497823.325 -18681825.898 10 0 60967 27900.00000 0 -13831423.774 6415185.337 -20395689.027 10 0 60967 28800.00000 0 -12670850.919 4076959.370 -21711417.345 10 0 60967 29700.00000 0 -11638110.606 1532451.985 -22603453.476 10 0 60967 30600.00000 0 -10772319.322 -1160179.284 -23054557.743 10 0 60967 31500.00000 0 -10101970.145 -3936117.998 -23056135.189 10 0 60967 32400.00000 0 -9643785.320 -6726361.520 -22608388.913 10 0 60967 33300.00000 0 -9402087.403 -9460370.145 -21720297.943 10 0 60967 34200.00000 0 -9368713.703 -12068781.398 -20409421.460 10 0 60967 35100.00000 0 -9523475.381 -14486076.075 -18701534.775 10 0 60967 36000.00000 0 -9835139.372 -16653085.144 -16630105.689 10 0 60967 36900.00000 0 -10262889.304 -18519233.922 -14235622.974 10 0 60967 37800.00000 0 -10758201.485 -20044431.471 -11564791.419 10 0 60967 38700.00000 0 -11267054.998 -21200528.506 -8669610.256 10 0 60967 39600.00000 0 -11732381.255 -21972285.487 -5606353.865 10 0 60967 40500.00000 0 -12096648.932 -22357813.246 -2434475.199 10 0 60967 41400.00000 0 -12304475.041 -22368470.607 784546.486 10 0 60967 42300.00000 0 -12305152.433 -22028225.951 3988391.218 10 0 60967 43200.00000 0 -12054988.006 -21372511.768 7115094.660 10 0 60967 44100.00000 0 -11519354.238 -20446621.870 10104232.853 10 0 60967 45000.00000 0 -10674368.903 -19303719.436 12898073.505 10 0 60967 45900.00000 0 -9508133.376 -18002539.583 15442673.023 10 0 60967 46800.00000 0 -8021478.230 -16604882.142 17688899.738 10 0 60967 47700.00000 0 -6228184.961 -15172998.482 19593365.309 10 0 60967 48600.00000 0 -4154674.009 -13766980.090 21119248.060 10 0 60967 49500.00000 0 -1839170.745 -12442256.200 22236993.920 10 0 60967 50400.00000 0 669617.800 -11247303.214 22924882.666 10 0 60967 51300.00000 0 3314263.013 -10221659.957 23169449.315 10 0 60967 52200.00000 0 6030741.425 -9394330.487 22965752.749 10 0 60967 53100.00000 0 8750842.912 -8782640.612 22317485.964 10 0 60967 54000.00000 0 11404763.400 -8391596.012 21236924.795 10 0 60967 54900.00000 0 13923777.158 -8213769.582 19744714.506 10 0 60967 55800.00000 0 16242879.658 -8229724.043 17869496.362 10 0 60967 56700.00000 0 18303292.431 -8408953.822 15647379.098 10 0 60967 57600.00000 0 20054726.077 -8711308.498 13121263.158 10 0 60967 58500.00000 0 21457306.630 -9088839.648 10340028.615 10 0 60967 59400.00000 0 22483083.702 -9487994.617 7357600.711 10 0 60967 60300.00000 0 23117055.677 -9852065.330 4231909.813 10 0 60967 61200.00000 0 23357667.065 -10123788.586 1023765.466 10 0 60967 62100.00000 0 23216755.274 -10247986.919 -2204333.530 10 0 60967 63000.00000 0 22718947.518 -10174136.523 -5389429.030 10 0 60967 63900.00000 0 21900532.224 -9858751.083 -8469348.075 10 0 60967 64800.00000 0 20807852.196 -9267477.751 -11383935.922 10 0 60967 65700.00000 0 19495287.693 -8376813.513 -14076251.447 10 0 60967 66600.00000 0 18022915.603 -7175366.430 -16493699.364 10 0 60967 67500.00000 0 16453945.048 -5664605.891 -18589075.191 10 0 60967 68400.00000 0 14852039.475 -3859068.180 -20321500.869 10 0 60967 69300.00000 0 13278640.079 -1786007.343 -21657231.522 10 0 60967 70200.00000 0 11790405.024 515494.623 -22570316.916 10 0 60967 71100.00000 0 10436873.505 2995920.952 -23043104.581 10 0 60967 72000.00000 0 9258453.559 5597157.699 -23066575.127 10 0 60967 72900.00000 0 8284818.047 8254698.022 -22640504.060 10 0 60967 73800.00000 0 7533775.274 10900120.037 -21773448.096 10 0 60967 74700.00000 0 7010660.037 13463733.837 -20482557.681 10 0 60967 75600.00000 0 6708268.405 15877286.623 -18793220.890 10 0 60967 76500.00000 0 6607336.276 18076612.953 -16738547.234 10 0 60967 77400.00000 0 6677538.744 20004119.907 -14358702.944 10 0 60967 78300.00000 0 6878965.384 21611004.503 -11700112.057 10 0 60967 79200.00000 0 7164006.826 22859112.388 -8814540.039 10 0 60967 80100.00000 0 7479571.068 23722362.261 -5758078.735 10 0 60967 81000.00000 0 7769534.642 24187678.930 -2590053.034 10 0 60967 81900.00000 0 7977324.470 24255398.622 628129.201 10 0 60967 82800.00000 0 8048521.405 23939132.137 3834161.594 10 0 60967 83700.00000 0 7933376.111 23265093.885 6966035.556 10 0 60967 84600.00000 0 7589132.101 22270926.731 9963226.044 10 0 60967 85500.00000 0 6982059.224 21004073.045 12767844.889 10 0 60968 0.00000 0 6089113.222 19519760.765 15325740.649 10 0 60968 900.00000 0 4899151.986 17878687.616 17587526.668 10 0 60968 1800.00000 0 3413659.132 16144501.372 19509515.902 10 0 60968 2700.00000 0 1646942.808 14381177.276 21054550.729 10 0 60968 3600.00000 0 -374198.392 12650402.123 22192709.874 10 0 60968 4500.00000 0 -2611330.567 11009071.360 22901881.407 10 0 60968 5400.00000 0 -5015727.339 9507001.757 23168191.375 10 0 60968 6300.00000 0 -7530147.362 8184953.367 22986279.992 10 0 60968 7200.00000 0 -10090975.703 7073042.161 22359419.711 10 0 60968 8100.00000 0 -12630643.315 6189609.048 21299471.867 10 0 60968 9000.00000 0 -15080226.947 5540592.679 19826681.195 10 0 60968 9900.00000 0 -17372123.809 5119433.029 17969310.161 10 0 60968 10800.00000 0 -19442691.371 4907511.073 15763117.904 10 0 60968 11700.00000 0 -21234743.179 4875107.655 13250691.503 10 0 60968 12600.00000 0 -22699796.464 4982842.849 10480640.328 10 0 60968 13500.00000 0 -23799976.741 5183536.565 7506667.226 10 0 60968 14400.00000 0 -24509498.091 5424412.837 4386533.246 10 0 60968 15300.00000 0 -24815655.071 5649554.882 1180935.392 10 0 60968 16200.00000 0 -24719282.422 5802506.540 -2047680.751 10 0 60968 17100.00000 0 -24234661.287 5828908.601 -5236349.608 10 0 60968 18000.00000 0 -23388874.263 5679056.268 -8322830.120 10 0 60968 18900.00000 0 -22220635.551 5310266.784 -11246840.031 10 0 60968 19800.00000 0 -20778645.241 4688953.987 -13951253.817 10 0 60968 20700.00000 0 -19119537.669 3792319.037 -16383238.624 10 0 60968 21600.00000 0 -17305511.426 2609583.018 -18495304.079 10 0 60968 22500.00000 0 -15401742.494 1142707.066 -20246243.738 10 0 60968 23400.00000 0 -13473691.198 -593432.071 -21601948.552 10 0 60968 24300.00000 0 -11584418.048 -2571419.457 -22536075.742 10 0 60968 25200.00000 0 -9792022.642 -4752216.872 -23030559.885 10 0 60968 26100.00000 0 -8147314.122 -7086576.527 -23075956.550 10 0 60968 27000.00000 0 -6691811.059 -9516893.663 -22671612.631 10 0 60968 27900.00000 0 -5456154.034 -11979419.515 -21825661.174 10 0 60968 28800.00000 0 -4458996.059 -14406741.081 -20554842.227 10 0 60968 29700.00000 0 -3706415.228 -16730423.207 -18884154.745 10 0 60968 30600.00000 0 -3191871.505 -18883702.107 -16846347.889 10 0 60968 31500.00000 0 -2896706.466 -20804117.754 -14481263.187 10 0 60968 32400.00000 0 -2791161.813 -22435975.661 -11835041.721 10 0 60968 33300.00000 0 -2835870.856 -23732536.317 -8959213.007 10 0 60968 34200.00000 0 -2983757.552 -24657842.298 -5909684.221 10 0 60968 35100.00000 0 -3182261.056 -25188108.695 -2745650.139 10 0 60968 36000.00000 0 -3375790.611 -25312620.980 471554.735 10 0 60968 36900.00000 0 -3508306.583 -25034105.063 3679639.521 10 0 60968 37800.00000 0 -3525918.799 -24368556.265 6816553.236 10 0 60968 38700.00000 0 -3379393.185 -23344536.248 9821671.583 10 0 60968 39600.00000 0 -3026462.065 -22001968.626 12636952.345 10 0 60968 40500.00000 0 -2433841.941 -20390484.313 15208038.454 10 0 60968 41400.00000 0 -1578874.990 -18567385.718 17485289.091 10 0 60968 42300.00000 0 -450726.046 -16595314.043 19424720.626 10 0 60968 43200.00000 0 948914.881 -14539715.607 20988840.987 10 0 60968 44100.00000 0 2605654.462 -12466210.957 22147362.978 10 0 60968 45000.00000 0 4492750.908 -10437974.224 22877784.012 10 0 60968 45900.00000 0 6571988.993 -8513229.651 23165821.931 10 0 60968 46800.00000 0 8795041.336 -6742967.467 23005698.769 10 0 60968 47700.00000 0 11105262.254 -5168972.676 22400266.612 10 0 60968 48600.00000 0 13439842.700 -3822247.744 21360972.192 10 0 60968 49500.00000 0 15732239.719 -2721894.608 19907659.296 10 0 60968 50400.00000 0 17914781.956 -1874502.899 18068210.876 10 0 60968 51300.00000 0 19921344.741 -1274070.794 15878035.448 10 0 60968 52200.00000 0 21689984.461 -902463.020 13379405.373 10 0 60968 53100.00000 0 23165422.505 -730388.234 10620657.615 10 0 60968 54000.00000 0 24301274.321 -718855.989 7655270.581 10 0 60968 54900.00000 0 25061928.848 -821052.931 4540833.614 10 0 60968 55800.00000 0 25423997.460 -984559.531 1337928.478 10 0 60968 56700.00000 0 25377269.261 -1153813.397 -1891055.377 10 0 60968 57600.00000 0 24925130.178 -1272713.942 -5083148.020 10 0 60968 58500.00000 0 24084426.171 -1287256.381 -8176043.377 10 0 60968 59400.00000 0 22884774.714 -1148081.079 -11109334.683 10 0 60968 60300.00000 0 21367352.708 -812827.514 -13825714.819 10 0 60968 61200.00000 0 19583211.766 -248190.215 -16272115.922 10 0 60968 62100.00000 0 17591192.414 568413.130 -18400763.983 10 0 60968 63000.00000 0 15455526.177 1647634.445 -20170126.133 10 0 60968 63900.00000 0 13243227.968 2987501.803 -21545730.805 10 0 60968 64800.00000 0 11021389.995 4573270.328 -22500844.030 10 0 60968 65700.00000 0 8854492.281 6377824.327 -23016988.469 10 0 60968 66600.00000 0 6801843.688 8362613.759 -23084295.365 10 0 60968 67500.00000 0 4915261.158 10479085.142 -22701683.350 10 0 60968 68400.00000 0 3237084.046 12670546.026 -21876861.765 10 0 60968 69300.00000 0 1798605.620 14874383.793 -20626159.825 10 0 60968 70200.00000 0 618985.503 17024544.847 -18974186.515 10 0 60968 71100.00000 0 -295313.954 19054169.650 -16953329.396 10 0 60968 72000.00000 0 -950546.751 20898272.874 -14603103.640 10 0 60968 72900.00000 0 -1365160.303 22496356.585 -11969365.370 10 0 60968 73800.00000 0 -1568755.725 23794847.725 -9103405.796 10 0 60968 74700.00000 0 -1600578.125 24749258.952 -6060944.793 10 0 60968 75600.00000 0 -1507603.013 25325983.975 -2901044.153 10 0 60968 76500.00000 0 -1342301.409 25503654.119 315038.011 10 0 60968 77400.00000 0 -1160179.066 25274001.383 3525029.439 10 0 60968 78300.00000 0 -1017194.052 24642193.916 6666839.882 10 0 60968 79200.00000 0 -967161.385 23626631.644 9679748.855 10 0 60968 80100.00000 0 -1059253.362 22258212.014 12505563.011 10 0 60968 81000.00000 0 -1335699.812 20579097.338 15089722.185 10 0 60968 81900.00000 0 -1829783.831 18641035.327 17382334.374 10 0 60968 82800.00000 0 -2564216.244 16503302.326 19339121.383 10 0 60968 83700.00000 0 -3549956.345 14230353.734 20922258.679 10 0 60968 84600.00000 0 -4785528.308 11889277.589 22101094.823 10 0 60968 85500.00000 0 -6256862.528 9547155.135 22852737.898 10 0 60969 0.00000 0 -7937669.774 7268435.939 23162498.470 10 0 60969 900.00000 0 -9790335.620 5112433.162 23024180.928 10 0 60969 1800.00000 0 -11767298.223 3131044.174 22440216.929 10 0 60969 2700.00000 0 -13812858.041 1366785.723 21421638.017 10 0 60969 3600.00000 0 -15865344.990 -148772.394 19987885.883 10 0 60969 4500.00000 0 -17859556.410 -1396111.337 18166462.225 10 0 60969 5400.00000 0 -19729366.380 -2368358.225 15992422.650 10 0 60969 6300.00000 0 -21410399.101 -3071346.351 13507722.020 10 0 60969 7200.00000 0 -22842655.281 -3523136.864 10760421.715 10 0 60969 8100.00000 0 -23972981.428 -3753020.692 7803772.242 10 0 60969 9000.00000 0 -24757277.378 -3800041.594 4695187.611 10 0 60969 9900.00000 0 -25162347.563 -3711101.868 1495130.680 10 0 60969 10800.00000 0 -25167315.812 -3538730.639 -1734068.861 10 0 60969 11700.00000 0 -24764541.584 -3338609.677 -4929440.202 10 0 60969 12600.00000 0 -23959996.548 -3166962.864 -8028615.549 10 0 60969 13500.00000 0 -22773083.532 -3077921.877 -10971066.671 10 0 60969 14400.00000 0 -21235903.946 -3120982.203 -13699307.614 10 0 60969 15300.00000 0 -19392003.756 -3338660.041 -16160037.904 10 0 60969 16200.00000 0 -17294650.802 -3764452.081 -18305201.881 10 0 60969 17100.00000 0 -15004716.561 -4421187.026 -20092941.733 10 0 60969 18000.00000 0 -12588252.600 -5319840.640 -21488424.298 10 0 60969 18900.00000 0 -10113864.909 -6458865.847 -22464524.736 10 0 60969 19800.00000 0 -7649997.701 -7824066.948 -23002353.501 10 0 60969 20700.00000 0 -5262241.703 -9389023.410 -23091616.635 10 0 60969 21600.00000 0 -3010780.353 -11116044.979 -22730803.119 10 0 60969 22500.00000 0 -948080.752 -12957617.107 -21927196.765 10 0 60969 23400.00000 0 883074.733 -14858274.863 -20696713.785 10 0 60969 24300.00000 0 2451135.435 -16756825.489 -19063570.774 10 0 60969 25200.00000 0 3736845.493 -18588825.326 -17059791.100 10 0 60969 26100.00000 0 4733781.410 -20289206.441 -14724560.902 10 0 60969 27000.00000 0 5448344.838 -21794942.480 -12103448.629 10 0 60969 27900.00000 0 5899214.313 -23047642.140 -9247504.509 10 0 60969 28800.00000 0 6116282.276 -23995962.155 -6212258.512 10 0 60969 29700.00000 0 6139125.099 -24597739.785 -3056636.960 10 0 60969 30600.00000 0 6015072.917 -24821756.928 158180.777 10 0 60969 31500.00000 0 5796962.344 -24649063.674 3369943.244 10 0 60969 32400.00000 0 5540667.751 -24073807.661 6516522.956 10 0 60969 33300.00000 0 5302515.398 -23103536.219 9537105.104 10 0 60969 34200.00000 0 5136688.959 -21758959.996 12373346.910 10 0 60969 35100.00000 0 5092734.802 -20073188.855 14970486.638 10 0 60969 36000.00000 0 5213270.776 -18090472.185 17278382.432 10 0 60969 36900.00000 0 5531993.612 -15864495.732 19252462.669 10 0 60969 37800.00000 0 6072067.571 -13456304.794 20854571.253 10 0 60969 38700.00000 0 6844961.338 -10931938.437 22053693.162 10 0 60969 39600.00000 0 7849781.952 -8359870.924 22826547.542 10 0 60969 40500.00000 0 9073134.402 -5808364.140 23158037.833 10 0 60969 41400.00000 0 10489514.325 -3342838.416 23041550.541 10 0 60969 42300.00000 0 12062219.604 -1023368.652 22479096.618 10 0 60969 43200.00000 0 13744745.484 1097592.233 21481291.828 10 0 60969 44100.00000 0 15482607.980 2977169.218 20067174.948 10 0 60969 45000.00000 0 17215522.304 4583619.741 18263865.406 10 0 60969 45900.00000 0 18879847.930 5897422.113 16106064.665 10 0 60969 46800.00000 0 20411200.004 6911851.776 13635408.645 10 0 60969 47700.00000 0 21747118.964 7633020.203 10899681.464 10 0 60969 48600.00000 0 22829686.684 8079373.601 7951903.813 10 0 60969 49500.00000 0 23607978.617 8280671.239 4849312.209 10 0 60969 50400.00000 0 24040247.293 8276485.468 1652248.229 10 0 60969 51300.00000 0 24095743.054 8114286.287 -1577020.744 10 0 60969 52200.00000 0 23756092.678 7847191.588 -4775525.673 10 0 60969 53100.00000 0 23016175.039 7531479.170 -7880839.711 10 0 60969 54000.00000 0 21884454.336 7223967.482 -10832315.749 10 0 60969 54900.00000 0 20382754.743 6979378.224 -13572291.427 10 0 60969 55800.00000 0 18545484.544 6847795.059 -16047235.873 10 0 60969 56700.00000 0 16418341.749 6872328.736 -18208813.743 10 0 60969 57600.00000 0 14056555.663 7087089.968 -20014844.000 10 0 60969 58500.00000 0 11522739.043 7515557.990 -21430133.373 10 0 60969 59400.00000 0 8884442.088 8169415.325 -22427167.406 10 0 60969 60300.00000 0 6211512.103 9047898.919 -22986645.374 10 0 60969 61200.00000 0 3573370.699 10137695.276 -23097848.892 10 0 60969 62100.00000 0 1036323.309 11413383.639 -22758837.762 10 0 60969 63000.00000 0 -1338986.134 12838407.695 -21976470.386 10 0 60969 63900.00000 0 -3499869.300 14366533.671 -20766249.709 10 0 60969 64800.00000 0 -5403541.607 15943732.144 -19151999.246 10 0 60969 65700.00000 0 -7018644.887 17510403.124 -17165377.069 10 0 60969 66600.00000 0 -8326283.400 19003849.774 -14845238.781 10 0 60969 67500.00000 0 -9320532.927 20360896.097 -12236863.293 10 0 60969 68400.00000 0 -10008405.002 21520538.304 -9391057.684 10 0 60969 69300.00000 0 -10409271.183 22426518.725 -6363159.594 10 0 60969 70200.00000 0 -10553774.809 23029714.840 -3211957.264 10 0 60969 71100.00000 0 -10482278.814 23290244.288 1451.431 10 0 60969 72000.00000 0 -10242917.110 23179198.895 3214838.682 10 0 60969 72900.00000 0 -9889333.078 22679936.617 6366042.636 10 0 60969 73800.00000 0 -9478201.096 21788878.761 9394157.016 10 0 60969 74700.00000 0 -9066635.447 20515780.450 12240692.414 10 0 60969 75600.00000 0 -8709595.000 18883463.927 14850688.220 10 0 60969 76500.00000 0 -8457391.728 16927026.185 17173755.287 10 0 60969 77400.00000 0 -8353406.424 14692553.683 19165030.952 10 0 60969 78300.00000 0 -8432106.220 12235396.711 20786029.720 10 0 60969 79200.00000 0 -8717446.029 9618073.516 22005374.891 10 0 60969 80100.00000 0 -9221720.331 6907889.144 22799398.284 10 0 60969 81000.00000 0 -9944913.497 4174365.316 23152597.439 10 0 60969 81900.00000 0 -10874576.689 1486585.255 23057941.857 10 0 60969 82800.00000 0 -11986238.055 -1089438.929 22517022.080 10 0 60969 83700.00000 0 -13244331.274 -3493269.328 21540037.900 10 0 60969 84600.00000 0 -14603606.264 -5672313.665 20145624.436 10 0 60969 85500.00000 0 -16010965.858 -7583771.662 18360517.517 10 0 60970 0.00000 0 -17407654.109 -9196175.650 16219062.786 10 0 60970 900.00000 0 -18731707.570 -10490461.650 13762574.428 10 0 60970 1800.00000 0 -19920566.422 -11460523.282 11038556.622 10 0 60970 2700.00000 0 -20913739.046 -12113226.924 8099797.030 10 0 60970 3600.00000 0 -21655405.869 -12467883.999 5003351.209 10 0 60970 4500.00000 0 -22096852.459 -12555202.289 1809435.828 10 0 60970 5400.00000 0 -22198627.252 -12415759.517 -1419747.723 10 0 60970 6300.00000 0 -21932330.345 -12098063.437 -4621235.839 10 0 60970 7200.00000 0 -21281955.032 -11656280.869 -7732546.196 10 0 60970 8100.00000 0 -20244722.616 -11147732.945 -10692916.222 10 0 60970 9000.00000 0 -18831372.710 -10630264.394 -13444510.340 10 0 60970 9900.00000 0 -17065894.796 -10159600.548 -15933570.170 10 0 60970 10800.00000 0 -14984711.017 -9786806.402 -18111483.171 10 0 60970 11700.00000 0 -12635344.029 -9555957.792 -19935747.087 10 0 60970 12600.00000 0 -10074626.055 -9502125.344 -21370809.955 10 0 60970 13500.00000 0 -7366525.031 -9649758.094 -22388768.481 10 0 60970 14400.00000 0 -4579679.988 -10011536.140 -22969910.864 10 0 60970 15300.00000 0 -1784750.074 -10587741.055 -23103093.727 10 0 60970 16200.00000 0 948310.945 -11366170.316 -22785946.531 10 0 60970 17100.00000 0 3552940.191 -12322598.416 -22024900.583 10 0 60970 18000.00000 0 5968498.958 -13421763.895 -20835043.450 10 0 60970 18900.00000 0 8142548.662 -14618839.092 -19239803.127 10 0 60970 19800.00000 0 10032775.816 -15861319.136 -17270469.698 10 0 60970 20700.00000 0 11608487.686 -17091249.097 -14965565.347 10 0 60970 21600.00000 0 12851618.826 -18247694.413 -12370076.436 10 0 60970 22500.00000 0 13757209.514 -19269349.843 -9534563.791 10 0 60970 23400.00000 0 14333339.397 -20097176.899 -6514169.595 10 0 60970 24300.00000 0 14600522.461 -20676959.065 -3367540.885 10 0 60970 25200.00000 0 14590591.803 -20961668.073 -155691.018 10 0 60970 26100.00000 0 14345123.627 -20913542.876 3059178.721 10 0 60970 27000.00000 0 13913468.664 -20505795.331 6214874.772 10 0 60970 27900.00000 0 13350474.979 -19723872.410 9250401.772 10 0 60970 28800.00000 0 12713998.339 -18566223.302 12107125.744 10 0 60970 29700.00000 0 12062304.508 -17044540.219 14729888.911 10 0 60970 30600.00000 0 11451471.704 -15183463.306 17068056.184 10 0 60970 31500.00000 0 10932901.023 -13019761.786 19076474.821 10 0 60970 32400.00000 0 10551037.777 -10601024.653 20716330.550 10 0 60970 33300.00000 0 10341397.902 -7983913.828 21955885.248 10 0 60970 34200.00000 0 10328981.051 -5232050.315 22771083.332 10 0 60970 35100.00000 0 10527136.240 -2413618.516 23146016.067 10 0 60970 36000.00000 0 10936927.684 401214.719 23073235.284 10 0 60970 36900.00000 0 11547028.186 3142962.070 22553910.203 10 0 60970 37800.00000 0 12334146.119 5745450.932 21597823.519 10 0 60970 38700.00000 0 13263970.266 8148324.599 20223205.368 10 0 60970 39600.00000 0 14292595.415 10299307.028 18456406.496 10 0 60970 40500.00000 0 15368371.543 12156137.748 16331414.668 10 0 60970 41400.00000 0 16434101.372 13688096.353 13889221.316 10 0 60970 42300.00000 0 17429495.817 14877052.281 11177048.387 10 0 60970 43200.00000 0 18293785.201 15717994.834 8247448.412 10 0 60970 44100.00000 0 18968376.513 16219019.853 5157293.748 10 0 60970 45000.00000 0 19399443.954 16400772.175 1966673.791 10 0 60970 45900.00000 0 19540341.890 16295366.239 -1262278.513 10 0 60970 46800.00000 0 19353735.979 15944829.662 -4466607.473 10 0 60970 47700.00000 0 18813359.663 15399135.528 -7583777.704 10 0 60970 48600.00000 0 17905318.829 14713907.225 -10552913.474 10 0 60970 49500.00000 0 16628886.658 13947894.302 -13316008.103 10 0 60970 50400.00000 0 14996752.663 13160328.039 -15819077.587 10 0 60970 51300.00000 0 13034713.488 12408270.896 -18013233.837 10 0 60970 52200.00000 0 10780817.344 11744074.292 -19855654.789 10 0 60970 53100.00000 0 8283997.616 11213054.374 -21310430.987 10 0 60970 54000.00000 0 5602253.265 10851485.767 -22349271.298 10 0 60970 54900.00000 0 2800452.999 10684999.148 -22952053.640 10 0 60970 55800.00000 0 -52143.783 10727450.761 -23107210.220 10 0 60970 56700.00000 0 -2884544.603 10980311.255 -22811940.454 10 0 60970 57600.00000 0 -5626748.218 11432598.659 -22072248.528 10 0 60970 58500.00000 0 -8212421.460 12061356.861 -20902806.218 10 0 60970 59400.00000 0 -10581417.124 12832657.559 -19326645.184 10 0 60970 60300.00000 0 -12682028.675 13703081.509 -17374686.301 10 0 60970 61200.00000 0 -14472889.247 14621614.715 -15085116.753 10 0 60970 62100.00000 0 -15924437.830 15531877.992 -12502628.459 10 0 60970 63000.00000 0 -17019894.139 16374594.703 -9677533.874 10 0 60970 63900.00000 0 -17755704.456 17090191.865 -6664777.430 10 0 60970 64800.00000 0 -18141443.015 17621424.865 -3522862.576 10 0 60970 65700.00000 0 -18199176.187 17915915.479 -312715.684 10 0 60970 66600.00000 0 -17962318.931 17928497.154 2903490.975 10 0 60970 67500.00000 0 -17474033.771 17623269.911 6063534.658 10 0 60970 68400.00000 0 -16785241.123 16975279.797 9106333.439 10 0 60970 69300.00000 0 -15952325.350 15971753.570 11973111.293 10 0 60970 70200.00000 0 -15034632.926 14612837.850 14608515.762 10 0 60970 71100.00000 0 -14091867.076 12911812.363 16961668.216 10 0 60970 72000.00000 0 -13181487.017 10894768.372 18987128.124 10 0 60970 72900.00000 0 -12356219.280 8599765.066 20645754.534 10 0 60970 73800.00000 0 -11661783.716 6075497.641 21905449.787 10 0 60970 74700.00000 0 -11134927.903 3379530.507 22741772.485 10 0 60970 75600.00000 0 -10801851.073 576166.463 23138408.878 10 0 60970 76500.00000 0 -10677082.918 -2265962.645 23087494.012 10 0 60970 77400.00000 0 -10762864.321 -5076486.783 22589776.243 10 0 60970 78300.00000 0 -11049056.734 -7785965.515 21654621.171 10 0 60970 79200.00000 0 -11513585.535 -10328524.531 20299853.475 10 0 60970 80100.00000 0 -12123400.755 -12644353.259 18551437.845 10 0 60970 81000.00000 0 -12835917.174 -14681960.897 16443002.917 10 0 60970 81900.00000 0 -13600875.591 -16400097.301 14015215.060 10 0 60970 82800.00000 0 -14362548.983 -17769258.165 11315011.831 10 0 60970 83700.00000 0 -15062202.084 -18772710.597 8394707.951 10 0 60970 84600.00000 0 -15640701.329 -19406994.673 5310989.607 10 0 60970 85500.00000 0 -16041164.765 -19681878.331 2123815.747 99